Location: Ridgecrest
(32.3404°N, 86.3200°W)
Time: 12:03:42
(UTC+00:00)

Explorer 11/Cluster Stage 4 - All Passes

Search period start: 17 December 2025 00:00
Search period end: 27 December 2025 00:00
Orbit: 463 x 1181 km, 28.8° (Epoch: 16 December)

Date Brightness Start Highest point End Pass type
(mag) Time Alt. Az. Time Alt. Az. Time Alt. Az.
17 Dec - 01:23:44 10° W 01:31:16 66° S 01:37:44 10° ESE visible
17 Dec - 03:12:31 10° W 03:19:04 43° SSW 03:24:32 10° SE visible
17 Dec - 05:02:41 10° WSW 05:06:03 15° SSW 05:09:06 10° S night (unlit)
17 Dec - 19:40:35 10° S 19:43:40 13° SE 19:46:50 10° ESE daylight
17 Dec - 21:24:19 10° SW 21:31:06 35° SSE 21:37:59 10° E daylight
17 Dec - 23:11:25 10° WSW 23:19:07 61° S 23:26:24 10° E visible
18 Dec - 00:59:41 10° W 01:07:21 66° S 01:14:05 10° ESE visible
18 Dec - 02:48:26 10° W 02:55:14 43° SSW 03:00:59 10° SE visible
18 Dec - 04:38:34 10° WSW 04:42:18 16° SSW 04:45:40 10° S night (unlit)
18 Dec - 19:16:47 10° S 19:19:46 13° SE 19:22:50 10° ESE daylight
18 Dec - 21:00:27 10° SW 21:07:07 36° SSE 21:14:04 10° E daylight
18 Dec - 22:47:28 10° WSW 22:55:07 61° S 23:02:35 10° E daylight
19 Dec - 00:35:39 10° W 00:43:24 67° S 00:50:24 10° ESE visible
19 Dec - 02:24:21 10° W 02:31:22 44° SSW 02:37:23 10° SE visible
19 Dec - 04:14:27 10° WSW 04:18:31 17° SSW 04:22:11 10° S night (unlit)
19 Dec - 18:53:04 10° SSE 18:55:52 13° SE 18:58:46 10° ESE daylight
19 Dec - 20:36:38 10° SW 20:43:09 36° SSE 20:50:07 10° E daylight
19 Dec - 22:23:34 10° WSW 22:31:08 62° S 22:38:44 10° E daylight
20 Dec - 00:11:39 10° W 00:19:26 67° S 00:26:40 10° ESE visible
20 Dec - 02:00:18 10° W 02:07:27 44° SSW 02:13:45 10° SE visible
20 Dec - 03:50:21 10° WSW 03:54:42 17° SSW 03:58:39 10° S night (unlit)
20 Dec - 18:29:27 10° SSE 18:32:00 12° SE 18:34:39 10° ESE daylight
20 Dec - 20:12:51 10° SW 20:19:11 36° SSE 20:26:07 10° E daylight
20 Dec - 21:59:42 10° WSW 22:07:08 62° S 22:14:49 10° E daylight
20 Dec - 23:47:41 10° W 23:55:27 67° S 00:02:52 10° ESE visible
21 Dec - 01:36:15 10° W 01:43:31 45° SSW 01:50:04 10° SE visible
21 Dec - 03:26:15 10° WSW 03:30:51 18° SSW 03:35:04 10° S visible
21 Dec - 18:05:55 10° SSE 18:08:09 12° SE 18:10:28 10° SE daylight
21 Dec - 19:49:08 10° SW 19:55:14 36° SSE 20:02:04 10° E daylight
21 Dec - 21:35:53 10° WSW 21:43:08 62° S 21:50:52 10° E daylight
21 Dec - 23:23:45 10° W 23:31:27 67° S 23:39:01 10° ESE visible
22 Dec - 01:12:14 10° W 01:19:33 45° SSW 01:26:19 10° SE visible
22 Dec - 03:02:10 10° WSW 03:06:58 18° SSW 03:11:25 10° S visible
22 Dec - 17:42:30 10° SSE 17:44:19 11° SE 17:46:12 10° SE daylight
22 Dec - 19:25:28 10° SW 19:31:19 35° SSE 19:38:00 10° E daylight
22 Dec - 21:12:07 10° WSW 21:19:09 62° S 21:26:52 10° E daylight
22 Dec - 22:59:52 10° W 23:07:26 67° S 23:15:07 10° ESE visible
23 Dec - 00:48:14 10° W 00:55:35 44° SSW 01:02:31 10° SE visible
23 Dec - 02:38:06 10° WSW 02:43:04 19° SSW 02:47:43 10° S visible
23 Dec - 17:19:16 10° SSE 17:20:31 11° SE 17:21:48 10° SE daylight
23 Dec - 19:01:50 10° SW 19:07:26 35° SSE 19:13:55 10° E daylight
23 Dec - 20:48:23 10° WSW 20:55:11 62° S 21:02:50 10° E daylight
23 Dec - 22:36:01 10° W 22:43:26 66° S 22:51:11 10° ESE daylight
24 Dec - 00:24:17 10° W 00:31:34 44° SSW 00:38:40 10° SE visible
24 Dec - 02:14:04 10° WSW 02:19:08 19° SSW 02:23:57 10° S visible
24 Dec - 18:38:15 10° SW 18:43:34 34° SSE 18:49:49 10° E daylight
24 Dec - 20:24:42 10° WSW 20:31:14 62° S 20:38:46 10° E daylight
24 Dec - 22:12:14 10° W 22:19:26 66° S 22:27:12 10° ESE daylight
25 Dec - 00:00:22 10° W 00:07:35 44° SSW 00:14:46 10° SE visible
25 Dec - 01:50:05 10° WSW 01:55:11 19° SSW 02:00:06 10° S visible
25 Dec - 18:14:42 10° SW 18:19:45 33° SSE 18:25:43 10° E daylight
25 Dec - 20:01:04 10° WSW 20:07:20 61° S 20:14:41 10° E daylight
25 Dec - 21:48:28 10° W 21:55:27 65° S 22:03:10 10° ESE daylight
25 Dec - 23:36:30 10° W 23:43:34 43° SSW 23:50:49 10° SE visible
26 Dec - 01:26:09 10° WSW 01:31:13 19° SSW 01:36:12 10° S visible
26 Dec - 17:51:11 10° SW 17:55:56 32° SSE 18:01:37 10° E daylight
26 Dec - 19:37:29 10° WSW 19:43:26 61° S 19:50:34 10° E daylight
26 Dec - 21:24:46 10° W 21:31:29 64° S 21:39:07 10° ESE daylight
26 Dec - 23:12:41 10° W 23:19:34 42° SSW 23:26:49 10° SE visible
